Weather History for Johnstown, PA

Change the Weather History Date:

Friday, March 14, 2014

  Actual Average Record
Temperature  
Mean Temperature 37 °F 35 °F  
Max Temperature 53 °F 43 °F 80 °F (1990)
Min Temperature 20 °F 27 °F 9 °F (1941)
Degree Days  
Heating Degree Days 28 30  
Month to date heating degree days 523 455  
Since 1 July heating degree days 5851 5334  
Cooling Degree Days 0 0  
Month to date cooling degree days 0 0  
Year to date cooling degree days 0 0  
Moisture  
Dew Point 18 °F    
Average Humidity 46    
Maximum Humidity 57    
Minimum Humidity 35    
Precipitation  
Precipitation 0.00 in 0.10 in 1.19 in (1933)
Month to date precipitation 0.89 1.20  
Year to date precipitation 4.93 6.43  
Sea Level Pressure  
Sea Level Pressure 29.97 in    
Wind  
Wind Speed 14 mph (SW)    
Max Wind Speed 30 mph    
Max Gust Speed 40 mph    
Visibility 10 miles    
Events      
T = Trace of Precipitation, MM = Missing Value Source: NWS Daily Summary

Daily Weather History Graph

Daily Weather History Graph

Search for Another Location

Airport:

Trip Planner

Search our weather history database for the weather conditions in past years. The results will help you decide how hot, cold, wet, or windy it might be!

Date:

Astronomy

Mar. 14, 2014 Rise Set
Actual Time 7:28 AM EDT 7:21 PM EDT
Civil Twilight 7:01 AM EDT 7:48 PM EDT
Nautical Twilight 6:29 AM EDT 8:19 PM EDT
Astronomical Twilight 5:57 AM EDT 8:51 PM EDT
Moon 5:41 PM EDT (3/14) 6:07 AM EDT (3/14)
Length of Visible Light 12h 46m
Length of Day
11h 52m
Waxing Gibbous, 96% of the Moon is Illuminated
Mar 14
Waxing Gibbous
Mar 16
Full
Mar 23
Last Quarter
Mar 30
New
Apr 7
First Quarter

Hourly Weather History & Observations

Time (EDT) Temp. Windchill Dew Point Humidity Pressure Visibility Wind Dir Wind Speed Gust Speed Precip Events Conditions
12:54 AM 19.0 °F 10.0 °F 7.0 °F 59% 30.12 in 10.0 mi SW 6.9 mph - N/A   Overcast
1:54 AM 21.0 °F 11.4 °F 8.1 °F 57% 30.12 in 10.0 mi SW 8.1 mph - N/A   Overcast
2:54 AM 24.1 °F 12.0 °F 8.1 °F 51% 30.10 in 10.0 mi WSW 13.8 mph - N/A   Overcast
3:08 AM 24.1 °F 12.0 °F 9.0 °F 53% 29.99 in 10.0 mi WSW 13.8 mph - N/A   Overcast
3:54 AM 25.0 °F 14.2 °F 9.0 °F 51% 30.09 in 10.0 mi SW 11.5 mph - N/A   Overcast
4:54 AM 26.1 °F 17.6 °F 9.0 °F 49% 30.09 in 10.0 mi SSW 8.1 mph - N/A   Overcast
5:54 AM 27.0 °F 17.3 °F 10.0 °F 49% 30.09 in 10.0 mi SSW 10.4 mph - N/A   Overcast
6:54 AM 28.0 °F 18.1 °F 10.0 °F 47% 30.09 in 10.0 mi South 11.5 mph - N/A   Overcast
7:54 AM 28.0 °F 18.6 °F 10.9 °F 49% 30.09 in 10.0 mi SSW 10.4 mph - N/A   Overcast
8:54 AM 28.9 °F 19.8 °F 12.9 °F 51% 30.09 in 10.0 mi SSW 10.4 mph - N/A   Overcast
9:54 AM 33.1 °F 24.4 °F 15.1 °F 48% 30.07 in 10.0 mi SW 11.5 mph - N/A   Scattered Clouds
10:54 AM 37.9 °F 30.0 °F 19.0 °F 47% 30.05 in 10.0 mi SSW 12.7 mph 20.7 mph N/A   Clear
11:54 AM 42.1 °F 34.9 °F 21.9 °F 45% 30.02 in 10.0 mi SSW 13.8 mph 19.6 mph N/A   Clear
12:54 PM 48.0 °F - 26.1 °F 42% 29.98 in 10.0 mi SW 19.6 mph 27.6 mph N/A   Clear
1:54 PM 50.0 °F - 28.0 °F 43% 29.94 in 10.0 mi SW 17.3 mph 28.8 mph N/A   Clear
2:54 PM 51.1 °F - 26.1 °F 38% 29.91 in 10.0 mi SW 16.1 mph 31.1 mph N/A   Clear
3:54 PM 52.0 °F - 27.0 °F 38% 29.87 in 10.0 mi SSW 19.6 mph 26.5 mph N/A   Clear
4:54 PM 53.1 °F - 27.0 °F 37% 29.84 in 10.0 mi SW 13.8 mph 26.5 mph N/A   Clear
5:54 PM 53.1 °F - 26.1 °F 35% 29.81 in 10.0 mi SW 18.4 mph 31.1 mph N/A   Clear
6:54 PM 51.1 °F - 25.0 °F 36% 29.81 in 10.0 mi SSW 18.4 mph 32.2 mph N/A   Clear
7:54 PM 50.0 °F - 25.0 °F 38% 29.82 in 10.0 mi SSW 12.7 mph 21.9 mph N/A   Partly Cloudy
8:54 PM 48.9 °F - 25.0 °F 39% 29.80 in 10.0 mi SSW 10.4 mph - N/A   Partly Cloudy
9:54 PM 48.9 °F - 25.0 °F 39% 29.80 in 10.0 mi SW 13.8 mph 20.7 mph N/A   Overcast
10:54 PM 48.9 °F - 25.0 °F 39% 29.79 in 10.0 mi SW 19.6 mph 32.2 mph N/A   Overcast
11:54 PM 48.0 °F - 26.1 °F 42% 29.77 in 10.0 mi WSW 23.0 mph 32.2 mph N/A   Overcast